Location: Namasale
(1.5000°N, 32.6167°E)
Time: 18:59:06
(UTC+00:00)

Vanguard 1 Rocket - Pass Details

Date: 22 April 2021
Orbit: 652 x 4224 km, 34.3° (Epoch: 10 May)

Event Time Altitude Azimuth Distance (km) Brightness Sun altitude
Rises 17:38:06 0° 315° (NW) 3,519 11.3 -26.5°
Reaches altitude 10° 17:40:10 10° 319° (NW) 2,799 10.6 -27.0°
Maximum altitude 17:46:52 64° 40° (NE) 1,621 8.4 -28.6°
Enters shadow 17:49:10 52° 91° (E) 2,000 8.6 -29.1°
Drops below altitude 10° 18:00:04 10° 119° (ESE) 5,266 - -31.8°
Sets 18:05:30 0° 122° (ESE) 6,865 - -33.1°
